Regional Weather Roundup
Issued by NWS

Home | Current Version | Previous Version | Graphics & Text | Print | Product List | Glossary On
Versions: 1 2 3 4 5 6 7 8 9 10 11 12 13 14 15 16 17 18 19 20 21 22 23 24 25 26 27 28 29 30 31 32 33 34 35 36 37 38 39 40 41 42 43 44 45 46 47 48 49 50
000
ASUS43 KDTX 291010
RWRMI
MICHIGAN HOURLY REGIONAL WEATHER ROUNDUP
NATIONAL WEATHER SERVICE DETROIT/PONTIAC MI
600 AM EDT SAT AUG 29 2015

NOTE: "FAIR" INDICATES FEW OR NO CLOUDS BELOW 12,000 FEET WITH NO
SIGNIFICANT WEATHER AND/OR OBSTRUCTION TO VISIBILITY.

MIZ047>049-052>055-059>063-066>070-074>076-081>083-291100-
SOUTHEAST LOWER MICHIGAN

CITY           SKY/WX    TMP DP  RH WIND       PRES   REMARKS
ADRIAN         CLOUDY    60  58  92 CALM      30.13S
ALMA           CLOUDY    61  60  96 CALM      30.13S
ANN ARBOR      CLOUDY    60  59  96 CALM      30.12S
BAD AXE        RAIN      62  60  94 W6        30.15R
DETROIT CITY   CLOUDY    65  62  90 CALM      30.13R
DETROIT        CLOUDY    65  62  90 CALM      30.13S
FLINT          CLOUDY    65  61  87 CALM      30.13F FOG
GROSSE ILE     CLOUDY    66  63  88 CALM      30.11S
HILLSDALE      CLOUDY    62  61  96 S3        30.12S
HOWELL         CLOUDY    62  61  96 SE3       30.12F FOG

CITY           SKY/WX    TMP DP  RH WIND       PRES   REMARKS
JACKSON        MOCLDY    61  58  90 SE5       30.11F
LAMBERTVILLE   CLOUDY    61  58  90 CALM      30.13S
LANSING        CLOUDY    63  61  93 N3        30.12S
LAPEER         NOT AVBL
MASON          CLOUDY    62  58  87 CALM      30.11F
MONROE         CLOUDY    60  58  96 CALM      30.11S FOG
MT. CLEMENS    CLOUDY    62  61  94 N3        30.11F
PONTIAC        CLOUDY    63  62  97 CALM      30.12F FOG
PORT HOPE        N/A     64  60  87 W7        30.12R
PORT HURON     LGT RAIN  59  59 100 CALM      30.14S
TRI CITIES     LGT RAIN  63  60  90 N7        30.14S
YPSILANTI      CLOUDY    63  58  83 NE3       30.13S
$$
MIZ043>046-050>051-056>058-064>065-071>073-077>080-291100-
SOUTHWEST LOWER MICHIGAN

CITY           SKY/WX    TMP DP  RH WIND       PRES   REMARKS
BATTLE CREEK   CLOUDY    65  59  81 S3        30.11S
BENTON HARBOR  CLOUDY    65  59  81 SE6       30.06F
BIG RAPIDS     LGT RAIN  59  58  96 CALM      30.12S
COLDWATER      MOCLDY    62  59  92 SE3       30.11S
HOLLAND        LGT RAIN  64  61  90 E7        30.09F
GRAND RAPIDS   CLOUDY    61  60  97 NE5       30.11F
KALAMAZOO      CLOUDY    65  58  78 CALM      30.10S
MARSHALL       CLOUDY    61  58  92 CALM      30.10S
MUSKEGON       LGT RAIN  61  57  87 E6        30.09F
$$
MIZ016>042-291100-
NORTHERN LOWER MICHIGAN

CITY           SKY/WX    TMP DP  RH WIND       PRES   REMARKS
ALPENA         LGT RAIN  62  60  93 SW6       30.11R
BEAVER ISLAND  CLOUDY    63  57  81 SW13G20   30.09R
BELLAIRE       RAIN      62  59  91 W3        30.13R
CADILLAC       RAIN      59  58  97 CALM      30.14R
CHARLEVOIX     DRIZZLE   62  60  94 SW9       30.14S
FRANKFORT      RAIN      59  58  97 CALM      30.12F
GAYLORD        LGT RAIN  61  60  97 W8        30.13R
GRAYLING       RAIN      59  58  96 W7        30.15R
HARBOR SPRINGS DRIZZLE   62  60  93 W8        30.10S
HOUGHTON LAKE  LGT RAIN  59  54  83 SW9       30.16R
MANISTEE       CLOUDY    61  55  82 E5        30.12F
OSCODA         LGT RAIN  62  60  92 W5        30.12R
PELLSTON       LGT RAIN  63  60  90 SW6       30.10S
TRAVERSE CITY  LGT RAIN  62  58  86 W8        30.12R
$$
MIZ007>008-015-291100-
EASTERN UPPER MICHIGAN

CITY           SKY/WX    TMP DP  RH WIND       PRES   REMARKS
KINROSS        CLOUDY    63  63 100 SW8       30.05R
MACKINAC ISLAN CLOUDY    63  60  90 W12G20    30.07S
NEWBERRY       CLOUDY    63  61  94 SW9       30.04S
S. S. MARIE    CLOUDY    64  61  90 W7        30.04R
$$
MIZ004>006-011>014-085-291100-
CENTRAL UPPER MICHIGAN

CITY           SKY/WX    TMP DP  RH WIND       PRES   REMARKS
MANISTIQUE     CLOUDY    61  57  87 SW7       30.06S
ESCANABA       CLOUDY    61  54  77 SW8       30.08S
MENOMINEE      CLOUDY    57  52  82 SW5       30.08S
SAWYER-GWINN   CLOUDY    62  57  85 SW10      30.04F
$$
MIZ001>003-009>011-084-291100-
WESTERN UPPER MICHIGAN

CITY           SKY/WX    TMP DP  RH WIND       PRES   REMARKS
IRON MOUNTAIN  MOCLDY    57  55  93 S6        30.07F
HOUGHTON       MOCLDY    61  58  90 W6        29.95R
COPPER HARBOR    N/A     61  59  93 N9        29.97R
IRONWOOD       MOCLDY    57  55  94 W9        30.05S
$$

ABBREVIATIONS USED IN REMARKS
   TC - TEMPERATURE IN CELSIUS
  WCI - WIND CHILL INDEX
   HX - HEAT INDEX
  VSB - VISIBILITY




USA.gov is the U.S. government's official web portal to all federal, state and local government web resources and services.